Hourly Data Report for December 08, 2020

FORT GOOD HOPE CS
NORTHWEST TERRITORIES
Current Station Operator: ECCC - MSC

66°14'32.044" N
128°38'39.081" W
81.70 m
2201450
71491
ZGH

Download Data

Hourly Data (December 2020)
Hourly Data Report for December 8, 2020
TIME
LST
Temp Definition
°C
Dew Point Definition
°C
Rel Hum Definition
%
Precip. Amount Definition
mm

Wind Dir Definition
10's deg

Wind Spd Definition
km/h
Visibility Definition
km
Stn Press Definition
kPa
Hmdx Definition


Wind Chill Definition


Weather Definition


00:00 -17.4 -19.7 82 0.0   0   99.17     LegendNANA
01:00 -16.9 -19.1 83 0.0 9 2   99.17   -18 LegendNANA
02:00 -16.5 -18.6 84 0.0 10 1   99.20   -17 LegendNANA
03:00 -16.2 -18.3 84 0.0 11 1   99.22   -17 LegendNANA
04:00 -16.1 -18.2 84 0.0 6 1   99.25   -17 LegendNANA
05:00 -17.0 -19.2 83 0.0 2 3   99.24   -19 LegendNANA
06:00 -18.6 -20.7 83 0.0 0 1   99.26   -19 LegendNANA
07:00 -19.8 -22.0 82 0.0 3 1   99.26   -21 LegendNANA
08:00 -23.0 -25.6 79 0.0 15 3   99.26   -26 LegendNANA
09:00 -21.3 -23.8 81 0.0 2 2   99.27   -23 LegendNANA
10:00 -22.7 -25.1 81 0.0 34 2   99.27   -25 LegendNANA
11:00 -24.3 -27.1 78 0.0 26 1   99.28   -25 LegendNANA
12:00 -24.1 -26.9 77 0.0   0   99.29     LegendNANA
13:00 -24.1 -26.9 78 0.0   0   99.33     LegendNANA
14:00 -23.4 -25.8 80 0.0 0 1   99.36   -24 LegendNANA
15:00 -24.0 -26.6 79 0.0 21 4   99.39   -28 LegendNANA
16:00 -24.3 -27.0 79 0.0 21 4   99.44   -28 LegendNANA
17:00 -25.5 -28.4 77 0.0 22 3   99.49   -29 LegendNANA
18:00 -25.5 -28.2 78 0.0 20 5   99.52   -31 LegendNANA
19:00 -24.3 -26.8 80 0.0 20 6   99.59   -30 LegendNANA
20:00 -23.1 -25.6 80 0.0 20 4   99.66   -27 LegendNANA
21:00 -22.2 -24.8 79 0.0 21 4   99.71   -26 LegendNANA
22:00 -21.3 -23.9 80 0.0 19 6   99.77   -27 LegendNANA
23:00 -20.2 -22.6 81 0.0 22 4   99.88   -24 LegendNANA

Notes on Data Quality.

Legend

  • E = Estimated
  • M = Missing
  • NA = Not Available*
  • [empty] = Indicates an unobserved value
Date modified: